Location: ????????
(56.1167°N, 38.6333°E)
Time: 22:27:22
(UTC+00:00)

Cosmos 44 - Pass Details

Date: 18 November 2025
Orbit: 575 x 775 km, 65.1° (Epoch: 06 December)

Event Time Altitude Azimuth Distance (km) Brightness Sun altitude
Rises 15:16:46 0° 296° (WNW) 3,040 7.5 -16.8°
Reaches altitude 10° 15:19:17 10° 307° (NW) 2,159 6.4 -17.2°
Maximum altitude 15:23:41 31° 10° (N) 1,251 4.4 -17.8°
Enters shadow 15:25:20 26° 44° (NE) 1,429 4.5 -18.0°
